Starlink 33600

operational
NORAD ID: 62772 Int'l Des: 2025-015 Owner: SPXS Country: US Constellation: starlink
LEOCIRCULAR

Über Starlink 33600

Beschreibung wird geladen...

Live-Position

3D-Globus wird geladen...

Nächste Überflüge

Höhenverlauf

Altitude vs Time

uPlot chart will show altitude changes over time

Zweizeiliger Elementsatz

1 62772U 25015Q 25259.72667817 .00010959 00000-0 38169-3 0 9998
2 62772 53.1591 50.7048 0001037 82.7123 277.3996 15.30191809 37840
Epoch: 16. Sept. 2025 • Age: 25 hours

Aktueller Status

Höhe 493.0 km
Geschwindigkeit 7.62 km/s
Subsatellitenpunkt -49.87°S, 73.77°E
Startdatum 21. Jan. 2025
Alter 0.6 years
Typ internet

Technische Details

Klassifizierung Payload
Masse 575.00 kg
Trockenmasse 530.00 kg
Gesamtmasse 575.00 kg
Länge 0.30 m
Durchmesser 4.10 m
Spannweite 29.00 m
Form Box + pan
Hersteller SPXS
Bus-Typ Starlink V2MO
Phasenstatus In Orbit
Besitzer/Staat SPXS/US

Große Konstellationen

Loading constellations...